Miscellaneous Local Product
Issued by NWS Hastings, NE

Home | Current Version | Previous Version | Graphics & Text | Print | Product List | Glossary On
Versions: 1 2 3 4 5 6 7 8 9 10 11 12 13 14 15 16 17 18 19 20 21 22 23 24 25 26 27 28 29 30 31 32 33 34 35 36 37 38 39 40 41 42 43 44 45 46 47 48 49 50
000
AXUS43 KGID 180902
MISGRI

GID CWA HOURLY WEATHER ROUNDUP
NATIONAL WEATHER SERVICE HASTINGS NE
400 AM CDT MON SEP 18 2017

NOTE: "FAIR" INDICATES FEW OR NO CLOUDS BELOW 12,000 FEET WITH NO
SIGNIFICANT WEATHER AND/OR OBSTRUCTIONS TO VISIBILITY.

...SOUTH CENTRAL NEBRASKA...

CITY           SKY/WX    TMP DP  RH WIND       PRES   REMARKS
GRAND ISLAND   TSTM      60  60 100 SE3       30.01F
HASTINGS       LGT RAIN  60  58  92 CALM      30.01F FOG
KEARNEY        CLOUDY    60  60 100 S5        30.01F FOG
ORD            LGT RAIN  58  54  86 SE3       29.98F
YORK           CLOUDY    59  59 100 SE5       30.00F
AURORA         CLOUDY    58  58  99 SE8       29.99F
LEXINGTON      CLOUDY    60  58  91 NW5       30.03S
HOLDREGE       FOG       59  58  96 CALM      30.01F VSB 1/2
HEBRON         CLOUDY    65  64  95 S10G16    30.00F THUNDER

...NEBRASKA PANHANDLE...

CITY           SKY/WX    TMP DP  RH WIND       PRES   REMARKS
CHADRON        CLEAR     52  45  77 W3        29.92F
ALLIANCE       CLEAR     49  47  93 S9        29.98S
SCOTTSBLUFF    CLEAR     49  46  90 E6        30.00S
SIDNEY         CLEAR     50  49  96 S3        30.02F

...WESTERN AND NORTH CENTRAL NEBRASKA...

CITY           SKY/WX    TMP DP  RH WIND       PRES   REMARKS
VALENTINE      PTCLDY    59  52  77 S9        29.92S
AINSWORTH      CLOUDY    56  54  94 S12       29.90F
ONEILL         TSTM      57  57 100 S9        29.99F
BROKEN BOW     PTCLDY    58  54  86 S9        29.97F
IMPERIAL       CLOUDY    57  53  86 SE12      30.00F
NORTH PLATTE   CLOUDY    59  55  87 S15       29.98F
MCCOOK         CLOUDY    59  58  96 NE3       30.02F

...EASTERN NEBRASKA...

CITY           SKY/WX    TMP DP  RH WIND       PRES   REMARKS
NORFOLK        RAIN      58  57  97 S7        30.00F
SO SIOUX CITY  TSTM      57  57 100 CALM      30.03S FOG
TEKAMAH        LGT RAIN  59  57  93 CALM      30.03F
COLUMBUS       CLOUDY    60  58  92 E5        30.01F
ALBION         CLOUDY    59  57  96 CALM      30.01F
OMAHA EPPLEY   LGT RAIN  65  59  81 SE9       30.04F
OFFUTT AFB     CLOUDY    63  60  90 CALM      30.03F
MILLARD        CLOUDY    65  61  88 SE6       30.03F
LINCOLN        LGT RAIN  64  62  93 SE7       30.02F
NEBRASKA CITY  DRIZZLE   64  64 100 SE8       30.04F
BEATRICE       TSTM      65  64  94 SW3       30.04R
FALLS CITY     CLOUDY    65  63  93 SE6       30.04F

...NORTHERN KANSAS...

CITY           SKY/WX    TMP DP  RH WIND       PRES   REMARKS
GOODLAND       FOG       55  55 100 CALM      30.03R VSB 1
HILL CITY      FOG       61  61 100 E7        29.99F VSB 3/4
NORTON         CLOUDY    61  55  82 CALM      30.00F HAZE
PHILLIPSBURG   CLOUDY    63  63 100 E5        29.98F FOG
SMITH CENTER   FOG       63  61  94 SE6       29.99F VSB 3/4
HAYS           LGT RAIN  62  62 100 E10       29.98F VSB 1/2
RUSSELL        CLOUDY    64  63  96 E10       29.98F FOG
CONCORDIA      TSTM      65  65 100 SE13      30.00F FOG
SALINA         TSTM      69  65  86 SE13      30.02S
TOPEKA         CLOUDY    66  66 100 E5        30.05F



USA.gov is the U.S. government's official web portal to all federal, state and local government web resources and services.